Year,Month,Day,Hour,Minute,Value (Times are PST for temperature in C)
2016,04,20,00,00,13.60
2016,04,20,00,01,13.60
2016,04,20,00,02,13.60
2016,04,20,00,03,13.60
2016,04,20,00,04,13.60
2016,04,20,00,05,13.70
2016,04,20,00,06,13.70
2016,04,20,00,07,13.70
2016,04,20,00,08,13.70
2016,04,20,00,09,13.70
2016,04,20,00,10,13.70
2016,04,20,00,11,13.70
2016,04,20,00,12,13.70
2016,04,20,00,13,13.70
2016,04,20,00,14,13.70
2016,04,20,00,15,13.60
2016,04,20,00,16,13.60
2016,04,20,00,17,13.60
2016,04,20,00,18,13.60
2016,04,20,00,19,13.60
2016,04,20,00,20,13.60
2016,04,20,00,21,13.60
2016,04,20,00,22,13.50
2016,04,20,00,23,13.50
2016,04,20,00,24,13.50
2016,04,20,00,25,13.50
2016,04,20,00,26,13.50
2016,04,20,00,27,13.50
2016,04,20,00,28,13.40
2016,04,20,00,29,13.40
2016,04,20,00,30,13.40
2016,04,20,00,31,13.30
2016,04,20,00,32,13.30
2016,04,20,00,33,13.30
2016,04,20,00,34,13.30
2016,04,20,00,35,13.30
2016,04,20,00,36,13.30
2016,04,20,00,37,13.30
2016,04,20,00,38,13.20
2016,04,20,00,39,13.20
2016,04,20,00,40,13.20
2016,04,20,00,41,13.20
2016,04,20,00,42,13.10
2016,04,20,00,43,13.10
2016,04,20,00,44,13.10
2016,04,20,00,45,13.10
2016,04,20,00,46,13.00
2016,04,20,00,47,13.00
2016,04,20,00,48,13.00
2016,04,20,00,49,12.90
2016,04,20,00,50,12.90
2016,04,20,00,51,12.90
2016,04,20,00,52,12.90
2016,04,20,00,53,12.80
2016,04,20,00,54,12.80
2016,04,20,00,55,12.80
2016,04,20,00,56,12.80
2016,04,20,00,57,12.80
2016,04,20,00,58,12.80
2016,04,20,00,59,12.80
2016,04,20,01,00,12.80
2016,04,20,01,01,12.80
2016,04,20,01,02,12.70
2016,04,20,01,03,12.70
2016,04,20,01,04,12.70
2016,04,20,01,05,12.70
2016,04,20,01,06,12.60
2016,04,20,01,07,12.60
2016,04,20,01,08,12.60
2016,04,20,01,09,12.60
2016,04,20,01,10,12.60
2016,04,20,01,11,12.50
2016,04,20,01,12,12.50
2016,04,20,01,13,12.50
2016,04,20,01,14,12.50
2016,04,20,01,15,12.50
2016,04,20,01,16,12.50
2016,04,20,01,17,12.40
2016,04,20,01,18,12.40
2016,04,20,01,19,12.40
2016,04,20,01,20,12.40
2016,04,20,01,21,12.40
2016,04,20,01,22,12.40
2016,04,20,01,23,12.30
2016,04,20,01,24,12.30
2016,04,20,01,25,12.30
2016,04,20,01,26,12.30
2016,04,20,01,27,12.30
2016,04,20,01,28,12.30
2016,04,20,01,29,12.30
2016,04,20,01,30,12.30
2016,04,20,01,31,12.30
2016,04,20,01,32,12.20
2016,04,20,01,33,12.20
2016,04,20,01,34,12.20
2016,04,20,01,35,12.20
2016,04,20,01,36,12.20
2016,04,20,01,37,12.20
2016,04,20,01,38,12.10
2016,04,20,01,39,12.10
2016,04,20,01,40,12.10
2016,04,20,01,41,12.10
2016,04,20,01,42,12.10
2016,04,20,01,43,12.10
2016,04,20,01,44,12.10
2016,04,20,01,45,12.10
2016,04,20,01,46,12.10
2016,04,20,01,47,12.10
2016,04,20,01,48,12.10
2016,04,20,01,49,12.20
2016,04,20,01,50,12.20
2016,04,20,01,51,12.20
2016,04,20,01,52,12.20
2016,04,20,01,53,12.20
2016,04,20,01,54,12.10
2016,04,20,01,55,12.10
2016,04,20,01,56,12.10
2016,04,20,01,57,12.10
2016,04,20,01,58,12.10
2016,04,20,01,59,12.10
2016,04,20,02,00,12.00
2016,04,20,02,01,12.00
2016,04,20,02,02,12.00
2016,04,20,02,03,12.00
2016,04,20,02,04,12.00
2016,04,20,02,05,12.00
2016,04,20,02,06,12.00
2016,04,20,02,07,12.00
2016,04,20,02,08,12.00
2016,04,20,02,09,11.90
2016,04,20,02,10,11.90
2016,04,20,02,11,11.90
2016,04,20,02,12,11.90
2016,04,20,02,13,11.90
2016,04,20,02,14,11.80
2016,04,20,02,15,11.80
2016,04,20,02,16,11.80
2016,04,20,02,17,11.80
2016,04,20,02,18,11.80
2016,04,20,02,19,11.70
2016,04,20,02,20,11.70
2016,04,20,02,21,11.70
2016,04,20,02,22,11.70
2016,04,20,02,23,11.70
2016,04,20,02,24,11.70
2016,04,20,02,25,11.60
2016,04,20,02,26,11.60
2016,04,20,02,27,11.60
2016,04,20,02,28,11.60
2016,04,20,02,29,11.60
2016,04,20,02,30,11.60
2016,04,20,02,31,11.60
2016,04,20,02,32,11.60
2016,04,20,02,33,11.50
2016,04,20,02,34,11.40
2016,04,20,02,35,11.40
2016,04,20,02,36,11.40
2016,04,20,02,37,11.40
2016,04,20,02,38,11.40
2016,04,20,02,39,11.40
2016,04,20,02,40,11.40
2016,04,20,02,41,11.40
2016,04,20,02,42,11.30
2016,04,20,02,43,11.30
2016,04,20,02,44,11.30
2016,04,20,02,45,11.30
2016,04,20,02,46,11.30
2016,04,20,02,47,11.30
2016,04,20,02,48,11.30
2016,04,20,02,49,11.30
2016,04,20,02,50,11.30
2016,04,20,02,51,11.30
2016,04,20,02,52,11.20
2016,04,20,02,53,11.20
2016,04,20,02,54,11.20
2016,04,20,02,55,11.20
2016,04,20,02,56,11.20
2016,04,20,02,57,11.20
2016,04,20,02,58,11.20
2016,04,20,02,59,11.10
2016,04,20,03,00,11.10
2016,04,20,03,01,11.10
2016,04,20,03,02,11.10
2016,04,20,03,03,11.10
2016,04,20,03,04,11.10
2016,04,20,03,05,11.10
2016,04,20,03,06,11.10
2016,04,20,03,07,11.10
2016,04,20,03,08,11.10
2016,04,20,03,09,11.10
2016,04,20,03,10,11.10
2016,04,20,03,11,11.10
2016,04,20,03,12,11.10
2016,04,20,03,13,11.10
2016,04,20,03,14,11.10
2016,04,20,03,15,11.00
2016,04,20,03,16,10.90
2016,04,20,03,17,10.90
2016,04,20,03,18,10.90
2016,04,20,03,19,10.90
2016,04,20,03,20,10.90
2016,04,20,03,21,10.90
2016,04,20,03,22,10.90
2016,04,20,03,23,10.90
2016,04,20,03,24,10.90
2016,04,20,03,25,10.90
2016,04,20,03,26,10.90
2016,04,20,03,27,10.90
2016,04,20,03,28,10.90
2016,04,20,03,29,10.90
2016,04,20,03,30,10.90
2016,04,20,03,31,10.90
2016,04,20,03,32,10.90
2016,04,20,03,33,10.90
2016,04,20,03,34,10.90
2016,04,20,03,35,10.90
2016,04,20,03,36,10.90
2016,04,20,03,37,10.90
2016,04,20,03,38,10.90
2016,04,20,03,39,10.80
2016,04,20,03,40,10.80
2016,04,20,03,41,10.80
2016,04,20,03,42,10.80
2016,04,20,03,43,10.80
2016,04,20,03,44,10.70
2016,04,20,03,45,10.70
2016,04,20,03,46,10.70
2016,04,20,03,47,10.70
2016,04,20,03,48,10.70
2016,04,20,03,49,10.70
2016,04,20,03,50,10.70
2016,04,20,03,51,10.70
2016,04,20,03,52,10.70
2016,04,20,03,53,10.70
2016,04,20,03,54,10.70
2016,04,20,03,55,10.70
2016,04,20,03,56,10.70
2016,04,20,03,57,10.70
2016,04,20,03,58,10.60
2016,04,20,03,59,10.60
2016,04,20,04,00,10.60
2016,04,20,04,01,10.60
2016,04,20,04,02,10.60
2016,04,20,04,03,10.60
2016,04,20,04,04,10.60
2016,04,20,04,05,10.60
2016,04,20,04,06,10.60
2016,04,20,04,07,10.50
2016,04,20,04,08,10.40
2016,04,20,04,09,10.40
2016,04,20,04,10,10.40
2016,04,20,04,11,10.40
2016,04,20,04,12,10.40
2016,04,20,04,13,10.40
2016,04,20,04,14,10.40
2016,04,20,04,15,10.40
2016,04,20,04,16,10.40
2016,04,20,04,17,10.40
2016,04,20,04,18,10.40
2016,04,20,04,19,10.40
2016,04,20,04,20,10.40
2016,04,20,04,21,10.40
2016,04,20,04,22,10.30
2016,04,20,04,23,10.30
2016,04,20,04,24,10.30
2016,04,20,04,25,10.30
2016,04,20,04,26,10.20
2016,04,20,04,27,10.20
2016,04,20,04,28,10.20
2016,04,20,04,29,10.20
2016,04,20,04,30,10.10
2016,04,20,04,31,10.10
2016,04,20,04,32,10.10
2016,04,20,04,33,10.10
2016,04,20,04,34,10.10
2016,04,20,04,35,10.10
2016,04,20,04,36,10.10
2016,04,20,04,37,10.10
2016,04,20,04,38,10.20
2016,04,20,04,39,10.20
2016,04,20,04,40,10.20
2016,04,20,04,41,10.20
2016,04,20,04,42,10.20
2016,04,20,04,43,10.20
2016,04,20,04,44,10.20
2016,04,20,04,45,10.20
2016,04,20,04,46,10.10
2016,04,20,04,47,10.10
2016,04,20,04,48,10.10
2016,04,20,04,49,10.10
2016,04,20,04,50,10.10
2016,04,20,04,51,10.10
2016,04,20,04,52,10.10
2016,04,20,04,53,10.10
2016,04,20,04,54,10.10
2016,04,20,04,55,10.10
2016,04,20,04,56,10.20
2016,04,20,04,57,10.20
2016,04,20,04,58,10.30
2016,04,20,04,59,10.30
2016,04,20,05,00,10.40
2016,04,20,05,01,10.40
2016,04,20,05,02,10.40
2016,04,20,05,03,10.40
2016,04,20,05,04,10.40
2016,04,20,05,05,10.40
2016,04,20,05,06,10.40
2016,04,20,05,07,10.40
2016,04,20,05,08,10.40
2016,04,20,05,09,10.40
2016,04,20,05,10,10.40
2016,04,20,05,11,10.50
2016,04,20,05,12,10.60
2016,04,20,05,13,10.60
2016,04,20,05,14,10.60
2016,04,20,05,15,10.60
2016,04,20,05,16,10.60
2016,04,20,05,17,10.70
2016,04,20,05,18,10.70
2016,04,20,05,19,10.70
2016,04,20,05,20,10.70
2016,04,20,05,21,10.70
2016,04,20,05,22,10.70
2016,04,20,05,23,10.70
2016,04,20,05,24,10.70
2016,04,20,05,25,10.70
2016,04,20,05,26,10.70
2016,04,20,05,27,10.70
2016,04,20,05,28,10.60
2016,04,20,05,29,10.60
2016,04,20,05,30,10.60
2016,04,20,05,31,10.60
2016,04,20,05,32,10.60
2016,04,20,05,33,10.60
2016,04,20,05,34,10.50
2016,04,20,05,35,10.40
2016,04,20,05,36,10.40
2016,04,20,05,37,10.50
2016,04,20,05,38,10.60
2016,04,20,05,39,10.60
2016,04,20,05,40,10.60
2016,04,20,05,41,10.60
2016,04,20,05,42,10.60
2016,04,20,05,43,10.50
2016,04,20,05,44,10.40
2016,04,20,05,45,10.40
2016,04,20,05,46,10.40
2016,04,20,05,47,10.40
2016,04,20,05,48,10.40
2016,04,20,05,49,10.40
2016,04,20,05,50,10.40
2016,04,20,05,51,10.40
2016,04,20,05,52,10.40
2016,04,20,05,53,10.40
2016,04,20,05,54,10.40
2016,04,20,05,55,10.40
2016,04,20,05,56,10.40
2016,04,20,05,57,10.30
2016,04,20,05,58,10.30
2016,04,20,05,59,10.30
2016,04,20,06,00,10.30
2016,04,20,06,01,10.20
2016,04,20,06,02,10.20
2016,04,20,06,03,10.20
2016,04,20,06,04,10.20
2016,04,20,06,05,10.20
2016,04,20,06,06,10.20
2016,04,20,06,07,10.20
2016,04,20,06,08,10.20
2016,04,20,06,09,10.20
2016,04,20,06,10,10.20
2016,04,20,06,11,10.20
2016,04,20,06,12,10.10
2016,04,20,06,13,10.10
2016,04,20,06,14,10.10
2016,04,20,06,15,10.10
2016,04,20,06,16,10.10
2016,04,20,06,17,10.10
2016,04,20,06,18,10.10
2016,04,20,06,19,9.90
2016,04,20,06,20,9.90
2016,04,20,06,21,9.90
2016,04,20,06,22,9.90
2016,04,20,06,23,9.90
2016,04,20,06,24,9.90
2016,04,20,06,25,9.90
2016,04,20,06,26,9.90
2016,04,20,06,27,9.90
2016,04,20,06,28,10.00
2016,04,20,06,29,10.10
2016,04,20,06,30,10.10
2016,04,20,06,31,10.10
2016,04,20,06,32,10.10
2016,04,20,06,33,10.10
2016,04,20,06,34,10.10
2016,04,20,06,35,10.10
2016,04,20,06,36,10.10
2016,04,20,06,37,10.10
2016,04,20,06,38,10.10
2016,04,20,06,39,10.10
2016,04,20,06,40,10.10
2016,04,20,06,41,10.10
2016,04,20,06,42,10.10
2016,04,20,06,43,10.10
2016,04,20,06,44,10.10
2016,04,20,06,45,10.10
2016,04,20,06,46,10.10
2016,04,20,06,47,10.10
2016,04,20,06,48,10.10
2016,04,20,06,49,10.20
2016,04,20,06,50,10.20
2016,04,20,06,51,10.30
2016,04,20,06,52,10.40
2016,04,20,06,53,10.40
2016,04,20,06,54,10.50
2016,04,20,06,55,10.60
2016,04,20,06,56,10.60
2016,04,20,06,57,10.60
2016,04,20,06,58,10.70
2016,04,20,06,59,10.70
2016,04,20,07,00,10.80
2016,04,20,07,01,10.80
2016,04,20,07,02,10.90
2016,04,20,07,03,10.90
2016,04,20,07,04,10.90
2016,04,20,07,05,11.00
2016,04,20,07,06,11.10
2016,04,20,07,07,11.10
2016,04,20,07,08,11.10
2016,04,20,07,09,11.20
2016,04,20,07,10,11.30
2016,04,20,07,11,11.40
2016,04,20,07,12,11.40
2016,04,20,07,13,11.50
2016,04,20,07,14,11.60
2016,04,20,07,15,11.70
2016,04,20,07,16,11.80
2016,04,20,07,17,11.80
2016,04,20,07,18,11.90
2016,04,20,07,19,11.90
2016,04,20,07,20,12.00
2016,04,20,07,21,12.00
2016,04,20,07,22,12.10
2016,04,20,07,23,12.10
2016,04,20,07,24,12.20
2016,04,20,07,25,12.30
2016,04,20,07,26,12.30
2016,04,20,07,27,12.50
2016,04,20,07,28,12.50
2016,04,20,07,29,12.60
2016,04,20,07,30,12.70
2016,04,20,07,31,12.80
2016,04,20,07,32,12.90
2016,04,20,07,33,13.10
2016,04,20,07,34,13.20
2016,04,20,07,35,13.30
2016,04,20,07,36,13.40
2016,04,20,07,37,13.50
2016,04,20,07,38,13.60
2016,04,20,07,39,13.70
2016,04,20,07,40,13.80
2016,04,20,07,41,13.90
2016,04,20,07,42,13.90
2016,04,20,07,43,14.00
2016,04,20,07,44,14.10
2016,04,20,07,45,14.20
2016,04,20,07,46,14.20
2016,04,20,07,47,14.30
2016,04,20,07,48,14.30
2016,04,20,07,49,14.40
2016,04,20,07,50,14.50
2016,04,20,07,51,14.50
2016,04,20,07,52,14.60
2016,04,20,07,53,14.70
2016,04,20,07,54,14.80
2016,04,20,07,55,14.90
2016,04,20,07,56,15.00
2016,04,20,07,57,15.10
2016,04,20,07,58,15.20
2016,04,20,07,59,15.30
2016,04,20,08,00,15.30
2016,04,20,08,01,15.50
2016,04,20,08,02,15.60
2016,04,20,08,03,15.60
2016,04,20,08,04,15.80
2016,04,20,08,05,15.90
2016,04,20,08,06,16.00
2016,04,20,08,07,16.10
2016,04,20,08,08,16.10
2016,04,20,08,09,16.20
2016,04,20,08,10,16.30
2016,04,20,08,11,16.40
2016,04,20,08,12,16.50
2016,04,20,08,13,16.70
2016,04,20,08,14,16.70
2016,04,20,08,15,16.80
2016,04,20,08,16,16.90
2016,04,20,08,17,17.00
2016,04,20,08,18,17.00
2016,04,20,08,19,17.10
2016,04,20,08,20,17.10
2016,04,20,08,21,17.10
2016,04,20,08,22,17.20
2016,04,20,08,23,17.30
2016,04,20,08,24,17.30
2016,04,20,08,25,17.30
2016,04,20,08,26,17.40
2016,04,20,08,27,17.50
2016,04,20,08,28,17.60
2016,04,20,08,29,17.70
2016,04,20,08,30,17.80
2016,04,20,08,31,17.90
2016,04,20,08,32,17.90
2016,04,20,08,33,18.00
2016,04,20,08,34,18.10
2016,04,20,08,35,18.20
2016,04,20,08,36,18.20
2016,04,20,08,37,18.30
2016,04,20,08,38,18.40
2016,04,20,08,39,18.40
2016,04,20,08,40,18.50
2016,04,20,08,41,18.50
2016,04,20,08,42,18.50
2016,04,20,08,43,18.60
2016,04,20,08,44,18.70
2016,04,20,08,45,18.70
2016,04,20,08,46,18.80
2016,04,20,08,47,18.80
2016,04,20,08,48,18.80
2016,04,20,08,49,18.80
2016,04,20,08,50,18.80
2016,04,20,08,51,18.90
2016,04,20,08,52,18.90
2016,04,20,08,53,19.00
2016,04,20,08,54,19.10
2016,04,20,08,55,19.20
2016,04,20,08,56,19.30
2016,04,20,08,57,19.40
2016,04,20,08,58,19.50
2016,04,20,08,59,19.60
2016,04,20,09,00,19.70
2016,04,20,09,01,19.90
2016,04,20,09,02,20.00
2016,04,20,09,03,20.10
2016,04,20,09,04,20.10
2016,04,20,09,05,20.20
2016,04,20,09,06,20.20
2016,04,20,09,07,20.20
2016,04,20,09,08,20.30
2016,04,20,09,09,20.30
2016,04,20,09,10,20.40
2016,04,20,09,11,20.50
2016,04,20,09,12,20.60
2016,04,20,09,13,20.70
2016,04,20,09,14,20.90
2016,04,20,09,15,21.00
2016,04,20,09,16,21.10
2016,04,20,09,17,21.20
2016,04,20,09,18,21.30
2016,04,20,09,19,21.30
2016,04,20,09,20,21.30
2016,04,20,09,21,21.30
2016,04,20,09,22,21.40
2016,04,20,09,23,21.40
2016,04,20,09,24,21.40
2016,04,20,09,25,21.40
2016,04,20,09,26,21.40
2016,04,20,09,27,21.40
2016,04,20,09,28,21.40
2016,04,20,09,29,21.40
2016,04,20,09,30,21.40
2016,04,20,09,31,21.40
2016,04,20,09,32,21.40
2016,04,20,09,33,21.40
2016,04,20,09,34,21.40
2016,04,20,09,35,21.30
2016,04,20,09,36,21.40
2016,04,20,09,37,21.40
2016,04,20,09,38,21.40
2016,04,20,09,39,21.40
2016,04,20,09,40,21.40
2016,04,20,09,41,21.40
2016,04,20,09,42,21.40
2016,04,20,09,43,21.40
2016,04,20,09,44,21.50
2016,04,20,09,45,21.60
2016,04,20,09,46,21.50
2016,04,20,09,47,21.40
2016,04,20,09,48,21.50
2016,04,20,09,49,21.60
2016,04,20,09,50,21.60
2016,04,20,09,51,21.60
2016,04,20,09,52,21.60
2016,04,20,09,53,21.70
2016,04,20,09,54,21.70
2016,04,20,09,55,21.70
2016,04,20,09,56,21.70
2016,04,20,09,57,21.70
2016,04,20,09,58,21.70
2016,04,20,09,59,21.70
2016,04,20,10,00,21.80
2016,04,20,10,01,21.80
2016,04,20,10,02,21.80
2016,04,20,10,03,21.80
2016,04,20,10,04,21.80
2016,04,20,10,05,21.90
2016,04,20,10,06,22.00
2016,04,20,10,07,22.00
2016,04,20,10,08,22.10
2016,04,20,10,09,22.10
2016,04,20,10,10,22.00
2016,04,20,10,11,22.00
2016,04,20,10,12,21.90
2016,04,20,10,13,21.70
2016,04,20,10,14,21.60
2016,04,20,10,15,21.50
2016,04,20,10,16,21.40
2016,04,20,10,17,21.30
2016,04,20,10,18,21.30
2016,04,20,10,19,21.20
2016,04,20,10,20,21.10
2016,04,20,10,21,20.90
2016,04,20,10,22,20.80
2016,04,20,10,23,20.70
2016,04,20,10,24,20.70
2016,04,20,10,25,20.70
2016,04,20,10,26,20.70
2016,04,20,10,27,20.60
2016,04,20,10,28,20.50
2016,04,20,10,29,20.50
2016,04,20,10,30,20.60
2016,04,20,10,31,20.70
2016,04,20,10,32,20.80
2016,04,20,10,33,20.70
2016,04,20,10,34,20.70
2016,04,20,10,35,20.60
2016,04,20,10,36,20.50
2016,04,20,10,37,20.40
2016,04,20,10,38,20.20
2016,04,20,10,39,20.20
2016,04,20,10,40,20.20
2016,04,20,10,41,20.10
2016,04,20,10,42,20.00
2016,04,20,10,43,19.90
2016,04,20,10,44,19.90
2016,04,20,10,45,19.90
2016,04,20,10,46,19.90
2016,04,20,10,47,19.90
2016,04,20,10,48,19.90
2016,04,20,10,49,19.80
2016,04,20,10,50,19.80
2016,04,20,10,51,19.70
2016,04,20,10,52,19.70
2016,04,20,10,53,19.60
2016,04,20,10,54,19.60
2016,04,20,10,55,19.50
2016,04,20,10,56,19.50
2016,04,20,10,57,19.50
2016,04,20,10,58,19.60
2016,04,20,10,59,19.60
2016,04,20,11,00,19.70
2016,04,20,11,01,19.80
2016,04,20,11,02,19.80
2016,04,20,11,03,19.90
2016,04,20,11,04,19.90
2016,04,20,11,05,20.00
2016,04,20,11,06,20.10
2016,04,20,11,07,20.20
2016,04,20,11,08,20.20
2016,04,20,11,09,20.20
2016,04,20,11,10,20.30
2016,04,20,11,11,20.40
2016,04,20,11,12,20.50
2016,04,20,11,13,20.60
2016,04,20,11,14,20.70
2016,04,20,11,15,20.60
2016,04,20,11,16,20.50
2016,04,20,11,17,20.50
2016,04,20,11,18,20.50
2016,04,20,11,19,20.50
2016,04,20,11,20,20.40
2016,04,20,11,21,20.40
2016,04,20,11,22,20.50
2016,04,20,11,23,20.60
2016,04,20,11,24,20.60
2016,04,20,11,25,20.60
2016,04,20,11,26,20.70
2016,04,20,11,27,20.80
2016,04,20,11,28,21.00
2016,04,20,11,29,21.00
2016,04,20,11,30,21.10
2016,04,20,11,31,21.10
2016,04,20,11,32,21.00
2016,04,20,11,33,20.90
2016,04,20,11,34,20.80
2016,04,20,11,35,20.80
2016,04,20,11,36,20.80
2016,04,20,11,37,20.80
2016,04,20,11,38,20.80
2016,04,20,11,39,20.90
2016,04,20,11,40,20.90
2016,04,20,11,41,21.00
2016,04,20,11,42,21.00
2016,04,20,11,43,21.10
2016,04,20,11,44,21.20
2016,04,20,11,45,21.30
2016,04,20,11,46,21.30
2016,04,20,11,47,21.40
2016,04,20,11,48,21.40
2016,04,20,11,49,21.40
2016,04,20,11,50,21.40
2016,04,20,11,51,21.40
2016,04,20,11,52,21.40
2016,04,20,11,53,21.40
2016,04,20,11,54,21.30
2016,04,20,11,55,21.30
2016,04,20,11,56,21.20
2016,04,20,11,57,21.10
2016,04,20,11,58,21.10
2016,04,20,11,59,21.10
2016,04,20,12,00,21.20
2016,04,20,12,01,21.30
2016,04,20,12,02,21.50
2016,04,20,12,03,21.60
2016,04,20,12,04,21.70
2016,04,20,12,05,21.80
2016,04,20,12,06,21.80
2016,04,20,12,07,21.90
2016,04,20,12,08,22.00
2016,04,20,12,09,22.20
2016,04,20,12,10,22.30
2016,04,20,12,11,22.50
2016,04,20,12,12,22.60
2016,04,20,12,13,22.70
2016,04,20,12,14,22.80
2016,04,20,12,15,22.80
2016,04,20,12,16,22.80
2016,04,20,12,17,22.80
2016,04,20,12,18,22.70
2016,04,20,12,19,22.60
2016,04,20,12,20,22.50
2016,04,20,12,21,22.50
2016,04,20,12,22,22.50
2016,04,20,12,23,22.60
2016,04,20,12,24,22.70
2016,04,20,12,25,22.70
2016,04,20,12,26,22.90
2016,04,20,12,27,22.90
2016,04,20,12,28,23.00
2016,04,20,12,29,23.10
2016,04,20,12,30,23.00
2016,04,20,12,31,22.90
2016,04,20,12,32,22.80
2016,04,20,12,33,22.70
2016,04,20,12,34,22.70
2016,04,20,12,35,22.50
2016,04,20,12,36,22.20
2016,04,20,12,37,21.90
2016,04,20,12,38,21.70
2016,04,20,12,39,21.70
2016,04,20,12,40,21.80
2016,04,20,12,41,21.80
2016,04,20,12,42,21.70
2016,04,20,12,43,21.70
2016,04,20,12,44,21.80
2016,04,20,12,45,21.90
2016,04,20,12,46,21.90
2016,04,20,12,47,21.90
2016,04,20,12,48,21.80
2016,04,20,12,49,21.60
2016,04,20,12,50,21.50
2016,04,20,12,51,21.40
2016,04,20,12,52,21.30
2016,04,20,12,53,21.30
2016,04,20,12,54,21.60
2016,04,20,12,55,22.00
2016,04,20,12,56,22.40
2016,04,20,12,57,22.70
2016,04,20,12,58,22.90
2016,04,20,12,59,23.00
2016,04,20,13,00,22.80
2016,04,20,13,01,22.70
2016,04,20,13,02,22.70
2016,04,20,13,03,22.90
2016,04,20,13,04,23.10
2016,04,20,13,05,23.30
2016,04,20,13,06,23.30
2016,04,20,13,07,23.30
2016,04,20,13,08,23.20
2016,04,20,13,09,23.10
2016,04,20,13,10,23.10
2016,04,20,13,11,23.00
2016,04,20,13,12,23.10
2016,04,20,13,13,23.20
2016,04,20,13,14,23.30
2016,04,20,13,15,23.30
2016,04,20,13,16,23.30
2016,04,20,13,17,23.10
2016,04,20,13,18,22.90
2016,04,20,13,19,22.70
2016,04,20,13,20,22.50
2016,04,20,13,21,22.30
2016,04,20,13,22,22.20
2016,04,20,13,23,22.20
2016,04,20,13,24,22.30
2016,04,20,13,25,22.40
2016,04,20,13,26,22.50
2016,04,20,13,27,22.60
2016,04,20,13,28,22.80
2016,04,20,13,29,23.10
2016,04,20,13,30,23.30
2016,04,20,13,31,23.60
2016,04,20,13,32,23.80
2016,04,20,13,33,23.90
2016,04,20,13,34,24.20
2016,04,20,13,35,24.40
2016,04,20,13,36,24.50
2016,04,20,13,37,24.60
2016,04,20,13,38,24.80
2016,04,20,13,39,24.90
2016,04,20,13,40,25.00
2016,04,20,13,41,25.00
2016,04,20,13,42,25.00
2016,04,20,13,43,25.10
2016,04,20,13,44,25.20
2016,04,20,13,45,25.00
2016,04,20,13,46,24.70
2016,04,20,13,47,24.50
2016,04,20,13,48,24.00
2016,04,20,13,49,23.70
2016,04,20,13,50,23.40
2016,04,20,13,51,23.20
2016,04,20,13,52,22.90
2016,04,20,13,53,22.90
2016,04,20,13,54,22.90
2016,04,20,13,55,22.90
2016,04,20,13,56,22.90
2016,04,20,13,57,22.90
2016,04,20,13,58,22.90
2016,04,20,13,59,22.90
2016,04,20,14,00,22.90
2016,04,20,14,01,22.90
2016,04,20,14,02,22.80
2016,04,20,14,03,22.60
2016,04,20,14,04,22.50
2016,04,20,14,05,22.60
2016,04,20,14,06,22.50
2016,04,20,14,07,22.50
2016,04,20,14,08,22.50
2016,04,20,14,09,22.50
2016,04,20,14,10,22.50
2016,04,20,14,11,22.40
2016,04,20,14,12,22.30
2016,04,20,14,13,22.20
2016,04,20,14,14,22.20
2016,04,20,14,15,22.20
2016,04,20,14,16,22.20
2016,04,20,14,17,22.20
2016,04,20,14,18,22.20
2016,04,20,14,19,22.20
2016,04,20,14,20,22.10
2016,04,20,14,21,22.10
2016,04,20,14,22,22.10
2016,04,20,14,23,22.10
2016,04,20,14,24,22.10
2016,04,20,14,25,22.20
2016,04,20,14,26,22.20
2016,04,20,14,27,22.30
2016,04,20,14,28,22.30
2016,04,20,14,29,22.20
2016,04,20,14,30,22.20
2016,04,20,14,31,22.20
2016,04,20,14,32,22.10
2016,04,20,14,33,22.10
2016,04,20,14,34,22.10
2016,04,20,14,35,22.00
2016,04,20,14,36,22.10
2016,04,20,14,37,22.10
2016,04,20,14,38,22.20
2016,04,20,14,39,22.20
2016,04,20,14,40,22.30
2016,04,20,14,41,22.40
2016,04,20,14,42,22.50
2016,04,20,14,43,22.60
2016,04,20,14,44,22.70
2016,04,20,14,45,22.70
2016,04,20,14,46,22.80
2016,04,20,14,47,22.90
2016,04,20,14,48,22.90
2016,04,20,14,49,23.00
2016,04,20,14,50,23.10
2016,04,20,14,51,23.10
2016,04,20,14,52,23.10
2016,04,20,14,53,23.20
2016,04,20,14,54,23.20
2016,04,20,14,55,23.20
2016,04,20,14,56,23.10
2016,04,20,14,57,23.10
2016,04,20,14,58,23.10
2016,04,20,14,59,23.20
2016,04,20,15,00,23.30
2016,04,20,15,01,23.40
2016,04,20,15,02,23.50
2016,04,20,15,03,23.70
2016,04,20,15,04,23.70
2016,04,20,15,05,23.80
2016,04,20,15,06,23.90
2016,04,20,15,07,24.10
2016,04,20,15,08,24.10
2016,04,20,15,09,24.20
2016,04,20,15,10,24.30
2016,04,20,15,11,24.40
2016,04,20,15,12,24.40
2016,04,20,15,13,24.50
2016,04,20,15,14,24.50
2016,04,20,15,15,24.60
2016,04,20,15,16,24.60
2016,04,20,15,17,24.60
2016,04,20,15,18,24.60
2016,04,20,15,19,24.60
2016,04,20,15,20,24.70
2016,04,20,15,21,24.80
2016,04,20,15,22,24.90
2016,04,20,15,23,25.00
2016,04,20,15,24,25.00
2016,04,20,15,25,25.00
2016,04,20,15,26,25.00
2016,04,20,15,27,24.90
2016,04,20,15,28,24.90
2016,04,20,15,29,24.80
2016,04,20,15,30,24.60
2016,04,20,15,31,24.50
2016,04,20,15,32,24.40
2016,04,20,15,33,24.20
2016,04,20,15,34,24.10
2016,04,20,15,35,24.10
2016,04,20,15,36,24.20
2016,04,20,15,37,24.30
2016,04,20,15,38,24.30
2016,04,20,15,39,24.40
2016,04,20,15,40,24.40
2016,04,20,15,41,24.40
2016,04,20,15,42,24.40
2016,04,20,15,43,24.30
2016,04,20,15,44,24.20
2016,04,20,15,45,24.10
2016,04,20,15,46,23.80
2016,04,20,15,47,23.50
2016,04,20,15,48,23.30
2016,04,20,15,49,23.20
2016,04,20,15,50,23.20
2016,04,20,15,51,23.20
2016,04,20,15,52,23.20
2016,04,20,15,53,23.20
2016,04,20,15,54,23.20
2016,04,20,15,55,23.30
2016,04,20,15,56,23.30
2016,04,20,15,57,23.40
2016,04,20,15,58,23.40
2016,04,20,15,59,23.40
2016,04,20,16,00,23.30
2016,04,20,16,01,23.30
2016,04,20,16,02,23.20
2016,04,20,16,03,23.10
2016,04,20,16,04,22.90
2016,04,20,16,05,22.90
2016,04,20,16,06,23.00
2016,04,20,16,07,23.10
2016,04,20,16,08,23.10
2016,04,20,16,09,23.20
2016,04,20,16,10,23.30
2016,04,20,16,11,23.30
2016,04,20,16,12,23.40
2016,04,20,16,13,23.40
2016,04,20,16,14,23.40
2016,04,20,16,15,23.30
2016,04,20,16,16,23.30
2016,04,20,16,17,23.30
2016,04,20,16,18,23.30
2016,04,20,16,19,23.20
2016,04,20,16,20,23.20
2016,04,20,16,21,23.20
2016,04,20,16,22,23.00
2016,04,20,16,23,22.90
2016,04,20,16,24,22.80
2016,04,20,16,25,22.70
2016,04,20,16,26,22.60
2016,04,20,16,27,22.40
2016,04,20,16,28,22.30
2016,04,20,16,29,21.90
2016,04,20,16,30,21.80
2016,04,20,16,31,21.60
2016,04,20,16,32,21.60
2016,04,20,16,33,21.50
2016,04,20,16,34,21.30
2016,04,20,16,35,21.30
2016,04,20,16,36,21.30
2016,04,20,16,37,21.30
2016,04,20,16,38,21.30
2016,04,20,16,39,21.30
2016,04,20,16,40,21.30
2016,04,20,16,41,21.30
2016,04,20,16,42,21.30
2016,04,20,16,43,21.30
2016,04,20,16,44,21.30
2016,04,20,16,45,21.40
2016,04,20,16,46,21.40
2016,04,20,16,47,21.40
2016,04,20,16,48,21.50
2016,04,20,16,49,21.60
2016,04,20,16,50,21.50
2016,04,20,16,51,21.50
2016,04,20,16,52,21.40
2016,04,20,16,53,21.30
2016,04,20,16,54,21.30
2016,04,20,16,55,21.30
2016,04,20,16,56,21.40
2016,04,20,16,57,21.40
2016,04,20,16,58,21.50
2016,04,20,16,59,21.60
2016,04,20,17,00,21.60
2016,04,20,17,01,21.70
2016,04,20,17,02,21.70
2016,04,20,17,03,21.70
2016,04,20,17,04,21.70
2016,04,20,17,05,21.70
2016,04,20,17,06,21.80
2016,04,20,17,07,21.80
2016,04,20,17,08,21.90
2016,04,20,17,09,21.90
2016,04,20,17,10,22.00
2016,04,20,17,11,22.00
2016,04,20,17,12,22.00
2016,04,20,17,13,22.10
2016,04,20,17,14,22.20
2016,04,20,17,15,22.20
2016,04,20,17,16,22.30
2016,04,20,17,17,22.30
2016,04,20,17,18,22.30
2016,04,20,17,19,22.20